ROENNE current weather conditions

sailwx.info

Wind from 280 at 27 knots

Air temperature 8.0° C
Visibility: greater than 5.4 NM
Dewpoint 4.0° C

Last reported at 2019-Dec-07 12:50 UTC.
Time now 2019-Dec-07 14:20 UTC

Location: N 55°04' E 014°45'.
View on Google Maps.

See reports from other nearby stations

  
Tides and Currents Weather Stations Pressure Air Temp Water Temp Dewpoint Dewpoint Depression Visibility Wind Speed Wind Dir Waves Ship Positions
date/time (UTC)wind fromknots sea level pressurealtimeterstation pressurevisibilityair tempwater tempwave heightnotes
2019-Dec-07 12:50 280 27 5.4 8.0
2019-Dec-07 12:20 280 24 gusting 34 5.4 8.0
2019-Dec-07 11:50 280 22 5.4 8.0
2019-Dec-07 11:20 280 22 gusting 33 5.4 8.0
2019-Dec-07 10:50 280 26 5.4 8.0
2019-Dec-07 10:20 290 24 gusting 34 5.4 8.0
2019-Dec-07 09:50 280 26 5.4 8.0
2019-Dec-07 09:20 280 24 gusting 34 5.4 8.0
2019-Dec-07 08:50 270 20 3.8 8.0
2019-Dec-07 08:20 250 19 1.5 8.0 Light rain showers. Mist.
2019-Dec-07 07:50 240 21 1.6 8.0 Light rain showers. Mist.
2019-Dec-07 07:20 240 21 3.8 8.0
2019-Dec-07 06:50 250 24 5.4 8.0 Light rain showers.
2019-Dec-07 06:20 250 22 5.4 8.0 Light rain showers.
2019-Dec-07 05:50 240 20 3.2 8.0
2019-Dec-07 05:20 240 20 5.4 8.0
2019-Dec-07 04:50 240 19 5.4 8.0
2019-Dec-07 04:20 240 21 5.4 8.0
2019-Dec-07 03:50 230 17 5.4 7.0
2019-Dec-07 03:20 230 17 gusting 27 3.2 7.0
2019-Dec-07 02:50 230 17 4.3 7.0
2019-Dec-07 02:20 230 18 2.7 7.0
2019-Dec-07 01:50 220 18 1.3 7.0 Light rain showers. Mist.
2019-Dec-07 01:20 220 17 gusting 27 1.3 7.0 Light rain showers. Mist.
2019-Dec-07 00:50 220 15 1.2 7.0 Light rain showers. Mist.
2019-Dec-07 00:20 220 15 2.2 7.0 Mist.
2019-Dec-06 23:50 220 18 2.7 7.0 Light rain showers.
2019-Dec-06 23:20 220 14 3.2 7.0 Light rain showers.
2019-Dec-06 22:50 220 15 1.4 7.0 Light rain showers. Mist.
2019-Dec-06 22:20 220 17 3.8 7.0
2019-Dec-06 21:50 220 17 1.1 6.0 Light rain showers. Mist.
2019-Dec-06 21:20 220 17 2.3 6.0 Light rain showers. Mist.
2019-Dec-06 20:50 230 17 1.3 6.0 Light rain showers. Mist.
2019-Dec-06 20:20 220 17 2.2 6.0 Light drizzle. Mist.
2019-Dec-06 19:50 220 15 3.8 6.0 Light rain showers.
2019-Dec-06 19:20 220 17 5.4 6.0 Drizzle.
2019-Dec-06 18:50 220 14 2.4 6.0 Light rain snow. Mist.
2019-Dec-06 18:20 220 13 2.5 6.0 Light rain. Mist.
2019-Dec-06 17:50 230 17 1.7 6.0 Light rain. Mist.
2019-Dec-06 17:20 220 15 1.7 6.0 Light drizzle. Mist.
2019-Dec-06 16:50 220 17 gusting 27 3.2 7.0
2019-Dec-06 16:20 230 17 5.4 7.0
2019-Dec-06 15:50 220 15 5.4 7.0
2019-Dec-06 15:20 230 14 5.4 7.0
2019-Dec-06 14:50 230 18 5.4 7.0
2019-Dec-06 14:20 240 20 5.4 7.0
2019-Dec-06 13:50 240 20 5.4 7.0
2019-Dec-06 13:20 240 22 4.3 7.0
2019-Dec-06 12:50 240 25 3.8 7.0
2019-Dec-06 12:20 240 26 3.8 7.0
2019-Dec-06 11:50 240 25 4.3 7.0
2019-Dec-06 11:20 240 26 gusting 38 3.2 7.0
2019-Dec-06 10:50 240 25 3.2 7.0
2019-Dec-06 10:20 240 26 3.8 7.0
2019-Dec-06 09:50 240 27 3.8 7.0
2019-Dec-06 09:20 240 26 3.8 7.0
2019-Dec-06 08:50 240 27 3.8 7.0
2019-Dec-06 08:20 240 27 3.8 7.0
2019-Dec-06 07:50 240 28 3.8 6.0
2019-Dec-06 07:20 240 26 gusting 36 4.3 6.0
2019-Dec-06 06:50 240 27 gusting 38 4.9 6.0
2019-Dec-06 06:20 240 27 4.9 6.0
2019-Dec-06 05:50 240 25 4.9 6.0
2019-Dec-06 05:20 240 24 gusting 34 4.9 6.0 Drizzle.
2019-Dec-06 04:50 240 24 4.9 6.0 Light rain showers.
2019-Dec-06 04:20 230 20 gusting 31 4.3 5.0 Light rain showers.
2019-Dec-06 03:50 230 19 gusting 28 2.5 5.0 Light rain showers. Mist.
2019-Dec-06 03:20 230 21 2.5 5.0 Light rain showers. Mist.
2019-Dec-06 02:50 230 22 gusting 36 2.3 4.0 Light rain. Mist.
2019-Dec-06 02:20 220 20 gusting 31 3.2 5.0 Light rain.
2019-Dec-06 01:50 220 20 gusting 32 5.4 5.0
2019-Dec-06 01:20 220 19 5.4 5.0
2019-Dec-06 00:50 220 19 gusting 28 5.4 5.0
2019-Dec-06 00:20 230 21 5.4 5.0
2019-Dec-05 23:50 230 20 gusting 31 5.4 6.0
2019-Dec-05 23:20 230 18 gusting 27 5.4 6.0
2019-Dec-05 22:50 230 20 5.4 6.0
2019-Dec-05 22:20 230 17 5.4 5.0
2019-Dec-05 21:50 230 14 4.9 5.0
2019-Dec-05 21:20 230 15 5.4 5.0
2019-Dec-05 20:50 240 17 5.4 5.0
2019-Dec-05 20:20 240 20 5.4 5.0
2019-Dec-05 19:50 240 21 5.4 5.0
2019-Dec-05 19:20 240 20 5.4 6.0
2019-Dec-05 18:50 240 20 5.4 6.0
2019-Dec-05 18:20 240 20 5.4 6.0
2019-Dec-05 17:50 240 20 5.4 6.0
2019-Dec-05 17:20 240 15 5.4 7.0
2019-Dec-05 16:50 240 15 5.4 7.0
2019-Dec-05 16:20 230 13 5.4 6.0
2019-Dec-05 15:50 230 13 5.4 7.0
2019-Dec-05 15:20 240 18 5.4 7.0
2019-Dec-05 14:50 240 17 5.4 7.0
2019-Dec-05 14:20 230 12 5.4 6.0